START_TIME,STEP,MOV.,M35,t_acc.,PL05,t_acc.,PL06,t_acc.,PL07,t_acc.
1979-03-09 18:00:20.770 ,2,0,0.,4.8,6.,4.8,3.,4.8,2.,4.8
1979-03-09 18:00:25.570 ,2,0,0.,4.8,11.,4.8,2.,4.8,0.,4.8
1979-03-09 18:00:30.370 ,2,0,0.,4.8,8.,4.8,2.,4.8,0.,4.8
1979-03-09 18:00:35.170 ,2,0,0.,4.8,4.,4.8,3.,4.8,0.,4.8
1979-03-09 18:00:39.970 ,2,0,0.,4.8,7.,4.8,2.,4.8,0.,4.8
1979-03-09 18:00:44.770 ,3,0,0.,4.8,9.,4.8,1.,4.8,0.,4.8
1979-03-09 18:00:49.570 ,3,0,1.,4.8,10.,4.8,0.,4.8,0.,4.8
1979-03-09 18:00:54.370 ,3,0,0.,4.8,17.,4.8,2.,4.8,1.,4.8
1979-03-09 18:00:59.170 ,3,0,0.,4.8,17.,4.8,0.,4.8,2.,4.8
1979-03-09 18:01:03.970 ,3,0,0.,4.8,10.,4.8,6.,4.8,1.,4.8
1979-03-09 18:01:08.770 ,4,0,0.,4.8,11.,4.8,2.,4.8,1.,4.8
1979-03-09 18:01:13.570 ,4,0,0.,4.8,14.,4.8,4.,4.8,1.,4.8
1979-03-09 18:01:18.370 ,4,0,0.,4.8,12.,4.8,4.,4.8,0.,4.8
1979-03-09 18:01:23.170 ,4,0,0.,4.8,10.,4.8,2.,4.8,0.,4.8
1979-03-09 18:01:27.970 ,4,0,0.,4.8,5.,4.8,3.,4.8,0.,4.8
1979-03-09 18:01:32.770 ,5,0,0.,4.8,13.,4.8,0.,4.8,0.,4.8
1979-03-09 18:01:37.570 ,5,0,0.,4.8,15.,4.8,2.,4.8,1.,4.8
1979-03-09 18:01:42.370 ,5,0,0.,4.8,10.,4.8,3.,4.8,3.,4.8
1979-03-09 18:01:47.170 ,5,0,0.,4.8,17.,4.8,4.,4.8,0.,4.8
1979-03-09 18:01:51.970 ,5,0,0.,4.8,9.,4.8,2.,4.8,0.,4.8
1979-03-09 18:01:56.770 ,6,0,0.,4.8,6.,4.8,3.,4.8,0.,4.8
1979-03-09 18:02:01.570 ,6,0,0.,4.8,13.,4.8,1.,4.8,0.,4.8
1979-03-09 18:02:06.370 ,6,0,0.,4.8,10.,4.8,4.,4.8,0.,4.8
1979-03-09 18:02:11.170 ,6,0,0.,4.8,9.,4.8,1.,4.8,1.,4.8
1979-03-09 18:02:15.970 ,6,0,0.,4.8,13.,4.8,2.,4.8,2.,4.8
1979-03-09 18:02:20.770 ,7,0,0.,4.8,7.,4.8,2.,4.8,1.,4.8
1979-03-09 18:02:25.570 ,7,0,0.,4.8,9.,4.8,2.,4.8,0.,4.8
1979-03-09 18:02:30.370 ,7,0,0.,4.8,1.,4.8,0.,4.8,0.,4.8
1979-03-09 18:02:35.170 ,7,0,0.,4.8,2.,4.8,0.,4.8,0.,4.8
1979-03-09 18:02:39.970 ,7,0,0.,4.8,0.,4.8,0.,4.8,0.,4.8
1979-03-09 18:02:44.770 ,7,0,0.,4.8,1.,4.8,0.,4.8,0.,4.8
1979-03-09 18:02:49.570 ,7,0,0.,4.8,1.,4.8,1.,4.8,0.,4.8
1979-03-09 18:02:54.370 ,7,0,0.,4.8,0.,4.8,0.,4.8,1.,4.8
1979-03-09 18:02:59.170 ,7,0,0.,4.8,2.,4.8,0.,4.8,0.,4.8
1979-03-09 18:03:03.970 ,7,0,0.,4.8,0.,4.8,1.,4.8,0.,4.8
1979-03-09 18:03:08.770 ,6,0,0.,4.8,0.,4.8,0.,4.8,0.,4.8
1979-03-09 18:03:13.570 ,6,0,0.,4.8,0.,4.8,0.,4.8,1.,4.8
1979-03-09 18:03:18.370 ,6,0,0.,4.8,11.,4.8,0.,4.8,1.,4.8
1979-03-09 18:03:23.170 ,6,0,0.,4.8,10.,4.8,3.,4.8,1.,4.8
1979-03-09 18:03:27.970 ,6,0,0.,4.8,10.,4.8,1.,4.8,0.,4.8
1979-03-09 18:03:32.770 ,5,0,0.,4.8,3.,4.8,0.,4.8,0.,4.8
1979-03-09 18:03:37.570 ,5,0,0.,4.8,7.,4.8,2.,4.8,0.,4.8
1979-03-09 18:03:42.370 ,5,0,0.,4.8,8.,4.8,1.,4.8,1.,4.8
1979-03-09 18:03:47.170 ,5,0,0.,4.8,7.,4.8,0.,4.8,2.,4.8
1979-03-09 18:03:51.970 ,5,0,0.,4.8,11.,4.8,2.,4.8,0.,4.8
1979-03-09 18:03:56.770 ,4,0,0.,4.8,13.,4.8,3.,4.8,1.,4.8
1979-03-09 18:04:01.570 ,4,0,0.,4.8,3.,4.8,3.,4.8,0.,4.8
1979-03-09 18:04:06.370 ,4,0,0.,4.8,15.,4.8,2.,4.8,1.,4.8
1979-03-09 18:04:11.170 ,4,0,0.,4.8,8.,4.8,2.,4.8,1.,4.8
1979-03-09 18:04:15.970 ,4,0,0.,4.8,14.,4.8,2.,4.8,0.,4.8
1979-03-09 18:04:20.770 ,3,0,0.,4.8,8.,4.8,1.,4.8,2.,4.8
1979-03-09 18:04:25.570 ,3,0,0.,4.8,8.,4.8,3.,4.8,0.,4.8
1979-03-09 18:04:30.370 ,3,0,0.,4.8,10.,4.8,2.,4.8,0.,4.8
1979-03-09 18:04:35.170 ,3,0,0.,4.8,10.,4.8,4.,4.8,1.,4.8
1979-03-09 18:04:39.970 ,3,0,0.,4.8,8.,4.8,2.,4.8,1.,4.8
1979-03-09 18:04:44.770 ,2,0,0.,4.8,17.,4.8,0.,4.8,1.,4.8
1979-03-09 18:04:49.570 ,2,0,0.,4.8,12.,4.8,1.,4.8,3.,4.8
1979-03-09 18:04:54.370 ,2,0,0.,4.8,11.,4.8,0.,4.8,3.,4.8
1979-03-09 18:04:59.170 ,2,0,0.,4.8,7.,4.8,2.,4.8,3.,4.8
1979-03-09 18:05:03.970 ,2,0,0.,4.8,9.,4.8,1.,4.8,0.,4.8
1979-03-09 18:05:08.770 ,1,0,0.,4.8,9.,4.8,0.,4.8,1.,4.8
1979-03-09 18:05:13.570 ,1,0,0.,4.8,10.,4.8,2.,4.8,1.,4.8
1979-03-09 18:05:18.370 ,1,0,0.,4.8,4.,4.8,0.,4.8,1.,4.8
1979-03-09 18:05:23.170 ,1,0,0.,4.8,11.,4.8,1.,4.8,0.,4.8
1979-03-09 18:05:27.970 ,1,0,0.,4.8,4.,4.8,1.,4.8,0.,4.8
1979-03-09 18:05:32.770 ,0,0,0.,4.8,14.,4.8,1.,4.8,1.,4.8
1979-03-09 18:05:37.570 ,0,0,0.,4.8,10.,4.8,1.,4.8,0.,4.8
1979-03-09 18:05:42.370 ,0,0,0.,4.8,2.,4.8,0.,4.8,0.,4.8
1979-03-09 18:05:47.170 ,0,0,0.,4.8,5.,4.8,0.,4.8,1.,4.8
1979-03-09 18:05:51.970 ,0,0,0.,4.8,6.,4.8,1.,4.8,1.,4.8
1979-03-09 18:05:56.770 ,0,0,0.,4.8,2.,4.8,1.,4.8,1.,4.8
1979-03-09 18:06:01.570 ,0,0,0.,4.8,4.,4.8,1.,4.8,1.,4.8
1979-03-09 18:06:06.370 ,0,0,0.,4.8,7.,4.8,3.,4.8,2.,4.8
1979-03-09 18:06:11.170 ,0,0,0.,4.8,8.,4.8,2.,4.8,0.,4.8
1979-03-09 18:06:15.970 ,0,0,0.,4.8,4.,4.8,1.,4.8,0.,4.8
1979-03-09 18:06:20.760 ,1,0,0.,4.8,11.,4.8,1.,4.8,3.,4.8
1979-03-09 18:06:25.570 ,1,0,0.,4.8,5.,4.8,0.,4.8,0.,4.8
1979-03-09 18:06:30.360 ,1,0,0.,4.8,4.,4.8,3.,4.8,1.,4.8
1979-03-09 18:06:35.170 ,1,0,0.,4.8,10.,4.8,2.,4.8,0.,4.8
1979-03-09 18:06:39.960 ,1,0,0.,4.8,3.,4.8,1.,4.8,2.,4.8
1979-03-09 18:06:44.760 ,2,0,0.,4.8,4.,4.8,1.,4.8,1.,4.8
1979-03-09 18:06:49.570 ,2,0,0.,4.8,6.,4.8,1.,4.8,0.,4.8
1979-03-09 18:06:54.360 ,2,0,0.,4.8,7.,4.8,2.,4.8,0.,4.8
1979-03-09 18:06:59.170 ,2,0,0.,4.8,5.,4.8,1.,4.8,0.,4.8
1979-03-09 18:07:03.960 ,2,0,0.,4.8,5.,4.8,4.,4.8,1.,4.8
1979-03-09 18:07:08.760 ,3,0,0.,4.8,8.,4.8,3.,4.8,1.,4.8
1979-03-09 18:07:13.560 ,3,0,0.,4.8,6.,4.8,5.,4.8,3.,4.8
1979-03-09 18:07:18.360 ,3,0,0.,4.8,8.,4.8,2.,4.8,1.,4.8
1979-03-09 18:07:23.160 ,3,0,0.,4.8,5.,4.8,1.,4.8,1.,4.8
1979-03-09 18:07:27.960 ,3,0,0.,4.8,12.,4.8,2.,4.8,2.,4.8
1979-03-09 18:07:32.760 ,4,0,0.,4.8,7.,4.8,3.,4.8,1.,4.8
1979-03-09 18:07:37.560 ,4,0,0.,4.8,11.,4.8,1.,4.8,1.,4.8
1979-03-09 18:07:42.360 ,4,0,0.,4.8,7.,4.8,1.,4.8,0.,4.8
1979-03-09 18:07:47.160 ,4,0,0.,4.8,11.,4.8,4.,4.8,0.,4.8
1979-03-09 18:07:51.960 ,4,0,0.,4.8,10.,4.8,6.,4.8,2.,4.8
1979-03-09 18:07:56.760 ,5,0,0.,4.8,8.,4.8,4.,4.8,0.,4.8
1979-03-09 18:08:01.560 ,5,0,0.,4.8,10.,4.8,2.,4.8,1.,4.8
1979-03-09 18:08:06.360 ,5,0,0.,4.8,7.,4.8,2.,4.8,0.,4.8
1979-03-09 18:08:11.160 ,5,0,0.,4.8,11.,4.8,2.,4.8,1.,4.8
1979-03-09 18:08:15.960 ,5,0,0.,4.8,11.,4.8,4.,4.8,0.,4.8
1979-03-09 18:08:20.760 ,6,0,0.,4.8,6.,4.8,2.,4.8,1.,4.8
1979-03-09 18:08:25.560 ,6,0,0.,4.8,3.,4.8,0.,4.8,1.,4.8
1979-03-09 18:08:30.360 ,6,0,0.,4.8,6.,4.8,1.,4.8,0.,4.8
1979-03-09 18:08:35.160 ,6,0,0.,4.8,7.,4.8,1.,4.8,0.,4.8
1979-03-09 18:08:39.960 ,6,0,0.,4.8,7.,4.8,0.,4.8,2.,4.8
1979-03-09 18:08:44.760 ,7,0,0.,4.8,9.,4.8,1.,4.8,2.,4.8
1979-03-09 18:08:49.560 ,7,0,0.,4.8,8.,4.8,1.,4.8,0.,4.8
1979-03-09 18:08:54.360 ,7,0,0.,4.8,2.,4.8,0.,4.8,1.,4.8
1979-03-09 18:08:59.160 ,7,0,0.,4.8,1.,4.8,0.,4.8,0.,4.8
1979-03-09 18:09:03.960 ,7,0,0.,4.8,2.,4.8,0.,4.8,0.,4.8
1979-03-09 18:09:08.760 ,7,0,0.,4.8,0.,4.8,0.,4.8,0.,4.8
1979-03-09 18:09:13.560 ,7,0,0.,4.8,0.,4.8,0.,4.8,0.,4.8
1979-03-09 18:09:18.360 ,7,0,0.,4.8,0.,4.8,0.,4.8,1.,4.8
1979-03-09 18:09:23.160 ,7,0,0.,4.8,0.,4.8,0.,4.8,0.,4.8
1979-03-09 18:09:27.960 ,7,0,0.,4.8,1.,4.8,2.,4.8,0.,4.8
1979-03-09 18:09:32.760 ,6,0,0.,4.8,2.,4.8,0.,4.8,0.,4.8
1979-03-09 18:09:37.560 ,6,0,0.,4.8,1.,4.8,1.,4.8,1.,4.8
1979-03-09 18:09:42.360 ,6,0,0.,4.8,1.,4.8,1.,4.8,0.,4.8
1979-03-09 18:09:47.160 ,6,0,0.,4.8,4.,4.8,0.,4.8,0.,4.8
1979-03-09 18:09:51.960 ,6,0,0.,4.8,0.,4.8,0.,4.8,0.,4.8
1979-03-09 18:09:56.760 ,5,0,0.,4.8,1.,4.8,0.,4.8,0.,4.8
1979-03-09 18:10:01.560 ,5,0,0.,4.8,2.,4.8,0.,4.8,0.,4.8
1979-03-09 18:10:06.360 ,5,0,0.,4.8,4.,4.8,2.,4.8,1.,4.8
1979-03-09 18:10:11.160 ,5,0,0.,4.8,2.,4.8,0.,4.8,0.,4.8
1979-03-09 18:10:15.960 ,5,0,0.,4.8,5.,4.8,0.,4.8,1.,4.8
1979-03-09 18:10:20.760 ,4,0,0.,4.8,5.,4.8,1.,4.8,0.,4.8
1979-03-09 18:10:25.560 ,4,0,0.,4.8,3.,4.8,0.,4.8,1.,4.8
1979-03-09 18:10:30.360 ,4,0,0.,4.8,4.,4.8,3.,4.8,0.,4.8
1979-03-09 18:10:35.160 ,4,0,0.,4.8,4.,4.8,0.,4.8,0.,4.8
1979-03-09 18:10:39.960 ,4,0,0.,4.8,0.,4.8,1.,4.8,1.,4.8
1979-03-09 18:10:44.760 ,3,0,0.,4.8,0.,4.8,0.,4.8,0.,4.8
1979-03-09 18:10:49.560 ,3,0,0.,4.8,7.,4.8,1.,4.8,1.,4.8
1979-03-09 18:10:54.360 ,3,0,0.,4.8,4.,4.8,1.,4.8,0.,4.8
1979-03-09 18:10:59.160 ,3,0,0.,4.8,6.,4.8,3.,4.8,1.,4.8
1979-03-09 18:11:03.960 ,3,0,0.,4.8,3.,4.8,1.,4.8,2.,4.8
1979-03-09 18:11:08.760 ,2,0,0.,4.8,5.,4.8,2.,4.8,0.,4.8
1979-03-09 18:11:13.560 ,2,0,0.,4.8,10.,4.8,1.,4.8,1.,4.8
1979-03-09 18:11:18.360 ,2,0,0.,4.8,2.,4.8,0.,4.8,1.,4.8
1979-03-09 18:11:23.160 ,2,0,0.,4.8,1.,4.8,0.,4.8,0.,4.8
1979-03-09 18:11:27.960 ,2,0,0.,4.8,3.,4.8,2.,4.8,0.,4.8
1979-03-09 18:11:32.760 ,1,0,0.,4.8,1.,4.8,1.,4.8,1.,4.8
1979-03-09 18:11:37.560 ,1,0,0.,4.8,2.,4.8,0.,4.8,3.,4.8
1979-03-09 18:11:42.360 ,1,0,0.,4.8,2.,4.8,0.,4.8,0.,4.8
1979-03-09 18:11:47.160 ,1,0,0.,4.8,3.,4.8,1.,4.8,0.,4.8
1979-03-09 18:11:51.960 ,1,0,0.,4.8,0.,4.8,0.,4.8,0.,4.8
1979-03-09 18:11:56.760 ,0,0,0.,4.8,0.,4.8,0.,4.8,0.,4.8
1979-03-09 18:12:01.560 ,0,0,0.,4.8,2.,4.8,0.,4.8,1.,4.8
1979-03-09 18:12:06.360 ,0,0,0.,4.8,0.,4.8,0.,4.8,0.,4.8
1979-03-09 18:12:11.160 ,0,0,0.,4.8,0.,4.8,1.,4.8,0.,4.8
1979-03-09 18:12:15.960 ,0,0,0.,4.8,0.,4.8,1.,4.8,1.,4.8
1979-03-09 18:12:20.760 ,0,0,0.,4.8,3.,4.8,0.,4.8,0.,4.8
1979-03-09 18:12:25.560 ,0,0,0.,4.8,1.,4.8,1.,4.8,0.,4.8
1979-03-09 18:12:30.360 ,0,0,0.,4.8,0.,4.8,0.,4.8,0.,4.8
1979-03-09 18:12:35.160 ,0,0,0.,4.8,0.,4.8,1.,4.8,0.,4.8
1979-03-09 18:12:39.960 ,0,0,0.,4.8,2.,4.8,0.,4.8,0.,4.8
1979-03-09 18:12:44.760 ,1,0,0.,4.8,1.,4.8,0.,4.8,0.,4.8
1979-03-09 18:12:49.560 ,1,0,0.,4.8,1.,4.8,0.,4.8,0.,4.8
1979-03-09 18:12:54.360 ,1,0,0.,4.8,3.,4.8,1.,4.8,0.,4.8
1979-03-09 18:12:59.160 ,1,0,0.,4.8,2.,4.8,1.,4.8,0.,4.8
1979-03-09 18:13:03.960 ,1,0,0.,4.8,0.,4.8,1.,4.8,1.,4.8
1979-03-09 18:13:08.760 ,2,0,0.,4.8,4.,4.8,0.,4.8,0.,4.8
1979-03-09 18:13:13.560 ,2,0,0.,4.8,0.,4.8,0.,4.8,0.,4.8
1979-03-09 18:13:18.360 ,2,0,0.,4.8,2.,4.8,0.,4.8,1.,4.8
1979-03-09 18:13:23.160 ,2,0,0.,4.8,2.,4.8,0.,4.8,0.,4.8
1979-03-09 18:13:27.960 ,2,0,0.,4.8,2.,4.8,0.,4.8,1.,4.8
1979-03-09 18:13:32.760 ,3,0,0.,4.8,0.,4.8,1.,4.8,0.,4.8
1979-03-09 18:13:37.560 ,3,0,0.,4.8,1.,4.8,0.,4.8,0.,4.8
1979-03-09 18:13:42.360 ,3,0,0.,4.8,0.,4.8,1.,4.8,0.,4.8
1979-03-09 18:13:47.160 ,3,0,0.,4.8,1.,4.8,1.,4.8,2.,4.8
1979-03-09 18:13:51.960 ,3,0,0.,4.8,4.,4.8,0.,4.8,0.,4.8
1979-03-09 18:13:56.760 ,4,0,0.,4.8,2.,4.8,1.,4.8,0.,4.8
1979-03-09 18:14:01.560 ,4,0,0.,4.8,3.,4.8,0.,4.8,0.,4.8
1979-03-09 18:14:06.360 ,4,0,0.,4.8,1.,4.8,0.,4.8,1.,4.8
1979-03-09 18:14:11.160 ,4,0,0.,4.8,1.,4.8,2.,4.8,0.,4.8
1979-03-09 18:14:15.960 ,4,0,0.,4.8,1.,4.8,1.,4.8,0.,4.8
1979-03-09 18:14:20.760 ,5,0,0.,4.8,2.,4.8,2.,4.8,1.,4.8
1979-03-09 18:14:25.560 ,5,0,0.,4.8,1.,4.8,0.,4.8,0.,4.8
1979-03-09 18:14:30.360 ,5,0,0.,4.8,0.,4.8,0.,4.8,0.,4.8
1979-03-09 18:14:35.160 ,5,0,0.,4.8,4.,4.8,1.,4.8,0.,4.8
1979-03-09 18:14:39.960 ,5,0,0.,4.8,0.,4.8,0.,4.8,0.,4.8
1979-03-09 18:14:44.760 ,6,0,0.,4.8,3.,4.8,0.,4.8,0.,4.8
1979-03-09 18:14:49.560 ,6,0,0.,4.8,3.,4.8,0.,4.8,0.,4.8
1979-03-09 18:14:54.360 ,6,0,0.,4.8,1.,4.8,1.,4.8,0.,4.8
1979-03-09 18:14:59.160 ,6,0,0.,4.8,2.,4.8,0.,4.8,0.,4.8
1979-03-09 18:15:03.960 ,6,0,0.,4.8,0.,4.8,0.,4.8,0.,4.8
1979-03-09 18:15:08.760 ,7,0,0.,4.8,0.,4.8,0.,4.8,0.,4.8
1979-03-09 18:15:13.550 ,7,0,0.,4.8,0.,4.8,1.,4.8,0.,4.8
1979-03-09 18:15:18.350 ,7,0,0.,4.8,0.,4.8,2.,4.8,0.,4.8
1979-03-09 18:15:23.150 ,7,0,0.,4.8,3.,4.8,0.,4.8,0.,4.8
1979-03-09 18:15:27.960 ,7,0,0.,4.8,0.,4.8,0.,4.8,1.,4.8
1979-03-09 18:15:32.760 ,7,0,0.,4.8,1.,4.8,1.,4.8,0.,4.8
1979-03-09 18:15:37.550 ,7,0,0.,4.8,0.,4.8,0.,4.8,0.,4.8
1979-03-09 18:15:42.350 ,7,0,0.,4.8,0.,4.8,0.,4.8,0.,4.8
1979-03-09 18:15:47.150 ,7,0,0.,4.8,2.,4.8,0.,4.8,1.,4.8
1979-03-09 18:15:51.960 ,7,0,0.,4.8,0.,4.8,0.,4.8,1.,4.8
1979-03-09 18:15:56.750 ,6,0,0.,4.8,0.,4.8,0.,4.8,1.,4.8
1979-03-09 18:16:01.550 ,6,0,0.,4.8,0.,4.8,0.,4.8,0.,4.8
1979-03-09 18:16:06.350 ,6,0,0.,4.8,1.,4.8,1.,4.8,0.,4.8
1979-03-09 18:16:11.150 ,6,0,0.,4.8,0.,4.8,0.,4.8,0.,4.8
1979-03-09 18:16:15.950 ,6,0,0.,4.8,0.,4.8,0.,4.8,0.,4.8
1979-03-09 18:16:20.750 ,5,0,0.,4.8,0.,4.8,0.,4.8,1.,4.8
1979-03-09 18:16:25.550 ,5,0,0.,4.8,0.,4.8,0.,4.8,0.,4.8
1979-03-09 18:16:30.350 ,5,0,0.,4.8,0.,4.8,0.,4.8,1.,4.8
1979-03-09 18:16:35.150 ,5,0,0.,4.8,1.,4.8,0.,4.8,0.,4.8
1979-03-09 18:16:39.950 ,5,0,0.,4.8,0.,4.8,0.,4.8,2.,4.8
1979-03-09 18:16:44.750 ,4,0,0.,4.8,0.,4.8,0.,4.8,0.,4.8
1979-03-09 18:16:49.550 ,4,0,0.,4.8,2.,4.8,0.,4.8,0.,4.8
1979-03-09 18:16:54.350 ,4,0,0.,4.8,2.,4.8,1.,4.8,0.,4.8
1979-03-09 18:16:59.150 ,4,0,0.,4.8,0.,4.8,0.,4.8,0.,4.8
1979-03-09 18:17:03.950 ,4,0,0.,4.8,3.,4.8,1.,4.8,0.,4.8
1979-03-09 18:17:08.750 ,3,0,0.,4.8,1.,4.8,0.,4.8,0.,4.8
1979-03-09 18:17:13.550 ,3,0,0.,4.8,0.,4.8,0.,4.8,0.,4.8
1979-03-09 18:17:18.350 ,3,0,0.,4.8,0.,4.8,0.,4.8,0.,4.8
1979-03-09 18:17:23.150 ,3,0,0.,4.8,1.,4.8,0.,4.8,0.,4.8
1979-03-09 18:17:27.950 ,3,0,0.,4.8,1.,4.8,0.,4.8,0.,4.8
1979-03-09 18:17:32.750 ,2,0,0.,4.8,1.,4.8,0.,4.8,0.,4.8
1979-03-09 18:17:37.550 ,2,0,0.,4.8,1.,4.8,2.,4.8,0.,4.8
1979-03-09 18:17:42.350 ,2,0,0.,4.8,3.,4.8,1.,4.8,0.,4.8
1979-03-09 18:17:47.150 ,2,0,0.,4.8,1.,4.8,0.,4.8,0.,4.8
1979-03-09 18:17:51.950 ,2,0,0.,4.8,2.,4.8,0.,4.8,1.,4.8
1979-03-09 18:17:56.750 ,1,0,0.,4.8,1.,4.8,1.,4.8,0.,4.8
1979-03-09 18:18:01.550 ,1,0,0.,4.8,1.,4.8,1.,4.8,1.,4.8
1979-03-09 18:18:06.350 ,1,0,0.,4.8,0.,4.8,0.,4.8,0.,4.8
1979-03-09 18:18:11.150 ,1,0,0.,4.8,0.,4.8,1.,4.8,0.,4.8
1979-03-09 18:18:15.950 ,1,0,0.,4.8,1.,4.8,0.,4.8,0.,4.8
1979-03-09 18:18:20.750 ,0,0,0.,4.8,2.,4.8,0.,4.8,0.,4.8
1979-03-09 18:18:25.550 ,0,0,0.,4.8,1.,4.8,0.,4.8,0.,4.8
1979-03-09 18:18:30.350 ,0,0,0.,4.8,0.,4.8,0.,4.8,0.,4.8
1979-03-09 18:18:35.150 ,0,0,0.,4.8,0.,4.8,1.,4.8,0.,4.8
1979-03-09 18:18:39.950 ,0,0,0.,4.8,0.,4.8,0.,4.8,1.,4.8
1979-03-09 18:18:44.750 ,0,0,0.,4.8,1.,4.8,0.,4.8,2.,4.8
1979-03-09 18:18:49.550 ,0,0,0.,4.8,0.,4.8,0.,4.8,0.,4.8
1979-03-09 18:18:54.350 ,0,0,0.,4.8,0.,4.8,0.,4.8,0.,4.8
1979-03-09 18:18:59.150 ,0,0,0.,4.8,0.,4.8,0.,4.8,0.,4.8
1979-03-09 18:19:03.950 ,0,0,0.,4.8,3.,4.8,0.,4.8,2.,4.8
1979-03-09 18:19:08.750 ,1,0,0.,4.8,0.,4.8,0.,4.8,0.,4.8
1979-03-09 18:19:13.550 ,1,0,0.,4.8,0.,4.8,0.,4.8,0.,4.8
1979-03-09 18:19:18.350 ,1,0,0.,4.8,2.,4.8,1.,4.8,1.,4.8
1979-03-09 18:19:23.150 ,1,0,0.,4.8,3.,4.8,0.,4.8,0.,4.8
1979-03-09 18:19:27.950 ,1,0,0.,4.8,1.,4.8,0.,4.8,0.,4.8
1979-03-09 18:19:32.750 ,2,0,0.,4.8,2.,4.8,0.,4.8,0.,4.8
1979-03-09 18:19:37.550 ,2,0,0.,4.8,2.,4.8,0.,4.8,0.,4.8
1979-03-09 18:19:42.350 ,2,0,0.,4.8,2.,4.8,0.,4.8,0.,4.8
1979-03-09 18:19:47.150 ,2,0,0.,4.8,0.,4.8,1.,4.8,0.,4.8
1979-03-09 18:19:51.950 ,2,0,0.,4.8,0.,4.8,0.,4.8,0.,4.8
1979-03-09 18:19:56.750 ,3,0,0.,4.8,1.,4.8,0.,4.8,0.,4.8
1979-03-09 18:20:01.550 ,3,0,0.,4.8,1.,4.8,0.,4.8,0.,4.8
1979-03-09 18:20:06.350 ,3,0,0.,4.8,3.,4.8,0.,4.8,0.,4.8
1979-03-09 18:20:11.150 ,3,0,0.,4.8,1.,4.8,0.,4.8,0.,4.8
1979-03-09 18:20:15.950 ,3,0,0.,4.8,0.,4.8,0.,4.8,0.,4.8
1979-03-09 18:20:20.750 ,4,0,0.,4.8,4.,4.8,0.,4.8,0.,4.8
1979-03-09 18:20:25.550 ,4,0,0.,4.8,5.,4.8,0.,4.8,0.,4.8
1979-03-09 18:20:30.350 ,4,0,0.,4.8,1.,4.8,2.,4.8,0.,4.8
1979-03-09 18:20:35.150 ,4,0,0.,4.8,3.,4.8,0.,4.8,0.,4.8
1979-03-09 18:20:39.950 ,4,0,0.,4.8,0.,4.8,1.,4.8,0.,4.8
1979-03-09 18:20:44.750 ,5,0,0.,4.8,1.,4.8,0.,4.8,0.,4.8
1979-03-09 18:20:49.550 ,5,0,0.,4.8,1.,4.8,0.,4.8,0.,4.8
1979-03-09 18:20:54.350 ,5,0,0.,4.8,0.,4.8,0.,4.8,0.,4.8
1979-03-09 18:20:59.150 ,5,0,0.,4.8,0.,4.8,1.,4.8,0.,4.8
1979-03-09 18:21:03.950 ,5,0,0.,4.8,3.,4.8,1.,4.8,1.,4.8
1979-03-09 18:21:08.750 ,6,0,0.,4.8,1.,4.8,0.,4.8,0.,4.8
1979-03-09 18:21:13.550 ,6,0,0.,4.8,0.,4.8,0.,4.8,1.,4.8
1979-03-09 18:21:18.350 ,6,0,0.,4.8,0.,4.8,0.,4.8,0.,4.8
1979-03-09 18:21:23.150 ,6,0,0.,4.8,0.,4.8,0.,4.8,0.,4.8
1979-03-09 18:21:27.950 ,6,0,0.,4.8,2.,4.8,0.,4.8,0.,4.8
1979-03-09 18:21:32.750 ,7,0,0.,4.8,3.,4.8,0.,4.8,0.,4.8
1979-03-09 18:21:37.550 ,7,0,0.,4.8,0.,4.8,0.,4.8,1.,4.8
1979-03-09 18:21:42.350 ,7,0,0.,4.8,1.,4.8,1.,4.8,2.,4.8
1979-03-09 18:21:47.150 ,7,0,0.,4.8,2.,4.8,0.,4.8,0.,4.8
1979-03-09 18:21:51.950 ,7,0,0.,4.8,0.,4.8,0.,4.8,0.,4.8
1979-03-09 18:21:56.750 ,7,0,0.,4.8,0.,4.8,0.,4.8,1.,4.8
1979-03-09 18:22:01.550 ,7,0,0.,4.8,0.,4.8,1.,4.8,1.,4.8
1979-03-09 18:22:06.350 ,7,0,0.,4.8,1.,4.8,0.,4.8,0.,4.8
1979-03-09 18:22:11.150 ,7,0,0.,4.8,1.,4.8,0.,4.8,0.,4.8
1979-03-09 18:22:15.950 ,7,0,0.,4.8,0.,4.8,0.,4.8,0.,4.8
1979-03-09 18:22:20.750 ,6,0,0.,4.8,3.,4.8,0.,4.8,0.,4.8
1979-03-09 18:22:25.550 ,6,0,0.,4.8,0.,4.8,1.,4.8,1.,4.8
1979-03-09 18:22:30.350 ,6,0,0.,4.8,2.,4.8,1.,4.8,0.,4.8
1979-03-09 18:22:35.150 ,6,0,0.,4.8,4.,4.8,1.,4.8,0.,4.8
1979-03-09 18:22:39.950 ,6,0,0.,4.8,3.,4.8,0.,4.8,0.,4.8
1979-03-09 18:22:44.750 ,5,0,0.,4.8,1.,4.8,1.,4.8,0.,4.8
1979-03-09 18:22:49.550 ,5,0,0.,4.8,3.,4.8,0.,4.8,0.,4.8
1979-03-09 18:22:54.350 ,5,0,0.,4.8,0.,4.8,0.,4.8,0.,4.8
1979-03-09 18:22:59.150 ,5,0,0.,4.8,0.,4.8,0.,4.8,0.,4.8
1979-03-09 18:23:03.950 ,5,0,0.,4.8,1.,4.8,0.,4.8,0.,4.8
1979-03-09 18:23:08.750 ,4,0,0.,4.8,1.,4.8,1.,4.8,1.,4.8
1979-03-09 18:23:13.550 ,4,0,0.,4.8,2.,4.8,0.,4.8,0.,4.8
1979-03-09 18:23:18.350 ,4,0,0.,4.8,1.,4.8,0.,4.8,0.,4.8
1979-03-09 18:23:23.150 ,4,0,0.,4.8,0.,4.8,1.,4.8,0.,4.8
1979-03-09 18:23:27.950 ,4,0,0.,4.8,0.,4.8,1.,4.8,0.,4.8
1979-03-09 18:23:32.750 ,3,0,0.,4.8,2.,4.8,0.,4.8,0.,4.8
1979-03-09 18:23:37.550 ,3,0,0.,4.8,0.,4.8,0.,4.8,0.,4.8
1979-03-09 18:23:42.350 ,3,0,0.,4.8,1.,4.8,2.,4.8,0.,4.8
1979-03-09 18:23:47.150 ,3,0,0.,4.8,4.,4.8,0.,4.8,0.,4.8
1979-03-09 18:23:51.950 ,3,0,0.,4.8,2.,4.8,0.,4.8,0.,4.8
1979-03-09 18:23:56.740 ,2,0,0.,4.8,0.,4.8,1.,4.8,0.,4.8
1979-03-09 18:24:01.540 ,2,0,0.,4.8,1.,4.8,0.,4.8,0.,4.8
1979-03-09 18:24:06.340 ,2,0,0.,4.8,1.,4.8,0.,4.8,0.,4.8
1979-03-09 18:24:11.150 ,2,0,0.,4.8,1.,4.8,0.,4.8,0.,4.8
1979-03-09 18:24:15.940 ,2,0,0.,4.8,2.,4.8,0.,4.8,2.,4.8
1979-03-09 18:24:20.740 ,1,0,0.,4.8,0.,4.8,0.,4.8,0.,4.8
1979-03-09 18:24:25.540 ,1,0,0.,4.8,1.,4.8,0.,4.8,0.,4.8
1979-03-09 18:24:30.340 ,1,0,0.,4.8,3.,4.8,0.,4.8,0.,4.8
1979-03-09 18:24:35.150 ,1,0,0.,4.8,1.,4.8,0.,4.8,0.,4.8
1979-03-09 18:24:39.940 ,1,0,0.,4.8,1.,4.8,1.,4.8,1.,4.8
1979-03-09 18:24:44.740 ,0,0,0.,4.8,4.,4.8,0.,4.8,0.,4.8
1979-03-09 18:24:49.540 ,0,0,0.,4.8,0.,4.8,1.,4.8,0.,4.8
1979-03-09 18:24:54.340 ,0,0,0.,4.8,0.,4.8,1.,4.8,0.,4.8
1979-03-09 18:24:59.150 ,0,0,0.,4.8,0.,4.8,0.,4.8,0.,4.8
1979-03-09 18:25:03.940 ,0,0,0.,4.8,0.,4.8,0.,4.8,0.,4.8
1979-03-09 18:25:08.740 ,0,0,0.,4.8,1.,4.8,2.,4.8,0.,4.8
1979-03-09 18:25:13.540 ,0,0,0.,4.8,2.,4.8,0.,4.8,0.,4.8
1979-03-09 18:25:18.340 ,0,0,0.,4.8,0.,4.8,0.,4.8,0.,4.8
1979-03-09 18:25:23.150 ,0,0,0.,4.8,3.,4.8,1.,4.8,0.,4.8
1979-03-09 18:25:27.940 ,0,0,0.,4.8,1.,4.8,0.,4.8,1.,4.8
1979-03-09 18:25:32.740 ,1,0,0.,4.8,1.,4.8,0.,4.8,0.,4.8
1979-03-09 18:25:37.540 ,1,0,0.,4.8,1.,4.8,0.,4.8,0.,4.8
1979-03-09 18:25:42.340 ,1,0,0.,4.8,2.,4.8,0.,4.8,0.,4.8
1979-03-09 18:25:47.140 ,1,0,0.,4.8,1.,4.8,1.,4.8,0.,4.8
1979-03-09 18:25:51.940 ,1,0,0.,4.8,1.,4.8,0.,4.8,0.,4.8
1979-03-09 18:25:56.740 ,2,0,0.,4.8,0.,4.8,1.,4.8,0.,4.8
1979-03-09 18:26:01.540 ,2,0,0.,4.8,1.,4.8,0.,4.8,0.,4.8
1979-03-09 18:26:06.340 ,2,0,0.,4.8,0.,4.8,0.,4.8,0.,4.8
1979-03-09 18:26:11.140 ,2,0,0.,4.8,0.,4.8,1.,4.8,0.,4.8
1979-03-09 18:26:15.940 ,2,0,0.,4.8,1.,4.8,1.,4.8,0.,4.8
1979-03-09 18:26:20.740 ,3,0,0.,4.8,1.,4.8,0.,4.8,0.,4.8
1979-03-09 18:26:25.540 ,3,0,0.,4.8,2.,4.8,0.,4.8,0.,4.8
1979-03-09 18:26:30.340 ,3,0,0.,4.8,1.,4.8,0.,4.8,0.,4.8
1979-03-09 18:26:35.140 ,3,0,0.,4.8,1.,4.8,0.,4.8,0.,4.8
1979-03-09 18:26:39.940 ,3,0,0.,4.8,0.,4.8,0.,4.8,0.,4.8
1979-03-09 18:26:44.740 ,4,0,0.,4.8,1.,4.8,0.,4.8,1.,4.8
1979-03-09 18:26:49.540 ,4,0,0.,4.8,2.,4.8,0.,4.8,2.,4.8
1979-03-09 18:26:54.340 ,4,0,0.,4.8,2.,4.8,0.,4.8,0.,4.8
1979-03-09 18:26:59.140 ,4,0,0.,4.8,0.,4.8,1.,4.8,0.,4.8
1979-03-09 18:27:03.940 ,4,0,0.,4.8,0.,4.8,1.,4.8,1.,4.8
1979-03-09 18:27:08.740 ,5,0,0.,4.8,3.,4.8,0.,4.8,0.,4.8
1979-03-09 18:27:13.540 ,5,0,0.,4.8,1.,4.8,0.,4.8,0.,4.8
1979-03-09 18:27:18.340 ,5,0,0.,4.8,1.,4.8,1.,4.8,0.,4.8
1979-03-09 18:27:23.140 ,5,0,0.,4.8,0.,4.8,0.,4.8,1.,4.8
1979-03-09 18:27:27.940 ,5,0,0.,4.8,1.,4.8,1.,4.8,0.,4.8
1979-03-09 18:27:32.740 ,6,0,0.,4.8,2.,4.8,1.,4.8,0.,4.8
1979-03-09 18:27:37.540 ,6,0,0.,4.8,0.,4.8,1.,4.8,0.,4.8
1979-03-09 18:27:42.340 ,6,0,0.,4.8,2.,4.8,1.,4.8,0.,4.8
1979-03-09 18:27:47.140 ,6,0,0.,4.8,2.,4.8,0.,4.8,0.,4.8
1979-03-09 18:27:51.940 ,6,0,0.,4.8,1.,4.8,0.,4.8,0.,4.8
1979-03-09 18:27:56.740 ,7,0,0.,4.8,3.,4.8,0.,4.8,0.,4.8
1979-03-09 18:28:01.540 ,7,0,0.,4.8,0.,4.8,0.,4.8,0.,4.8
1979-03-09 18:28:06.340 ,7,0,0.,4.8,3.,4.8,0.,4.8,1.,4.8
1979-03-09 18:28:11.140 ,7,0,0.,4.8,1.,4.8,0.,4.8,0.,4.8
1979-03-09 18:28:15.940 ,7,0,0.,4.8,0.,4.8,0.,4.8,0.,4.8
1979-03-09 18:28:20.740 ,7,0,0.,4.8,1.,4.8,0.,4.8,0.,4.8
1979-03-09 18:28:25.540 ,7,0,0.,4.8,1.,4.8,0.,4.8,0.,4.8
1979-03-09 18:28:30.340 ,7,0,0.,4.8,1.,4.8,1.,4.8,1.,4.8
1979-03-09 18:28:35.140 ,7,0,0.,4.8,2.,4.8,0.,4.8,1.,4.8
1979-03-09 18:28:39.940 ,7,0,0.,4.8,0.,4.8,0.,4.8,0.,4.8
1979-03-09 18:28:44.740 ,6,0,0.,4.8,0.,4.8,1.,4.8,0.,4.8
1979-03-09 18:28:49.540 ,6,0,0.,4.8,0.,4.8,0.,4.8,0.,4.8
1979-03-09 18:28:54.340 ,6,0,0.,4.8,1.,4.8,0.,4.8,0.,4.8
1979-03-09 18:28:59.140 ,6,0,0.,4.8,2.,4.8,1.,4.8,1.,4.8
1979-03-09 18:29:03.940 ,6,0,0.,4.8,3.,4.8,0.,4.8,0.,4.8
1979-03-09 18:29:08.740 ,5,0,0.,4.8,2.,4.8,0.,4.8,0.,4.8
1979-03-09 18:29:13.540 ,5,0,0.,4.8,0.,4.8,0.,4.8,0.,4.8
1979-03-09 18:29:18.340 ,5,0,0.,4.8,3.,4.8,1.,4.8,1.,4.8
1979-03-09 18:29:23.140 ,5,0,0.,4.8,3.,4.8,0.,4.8,0.,4.8
1979-03-09 18:29:27.940 ,5,0,0.,4.8,1.,4.8,0.,4.8,0.,4.8
1979-03-09 18:29:32.740 ,4,0,0.,4.8,1.,4.8,0.,4.8,2.,4.8
1979-03-09 18:29:37.540 ,4,0,0.,4.8,3.,4.8,2.,4.8,0.,4.8
1979-03-09 18:29:42.340 ,4,0,0.,4.8,2.,4.8,0.,4.8,0.,4.8
1979-03-09 18:29:47.140 ,4,0,0.,4.8,0.,4.8,0.,4.8,1.,4.8
1979-03-09 18:29:51.940 ,4,0,0.,4.8,1.,4.8,0.,4.8,0.,4.8
1979-03-09 18:29:56.740 ,3,0,0.,4.8,3.,4.8,1.,4.8,0.,4.8
1979-03-09 18:30:01.540 ,3,0,0.,4.8,2.,4.8,1.,4.8,0.,4.8
1979-03-09 18:30:06.340 ,3,0,0.,4.8,1.,4.8,1.,4.8,0.,4.8
1979-03-09 18:30:11.140 ,3,0,0.,4.8,1.,4.8,0.,4.8,0.,4.8
1979-03-09 18:30:15.940 ,3,0,0.,4.8,2.,4.8,0.,4.8,0.,4.8
1979-03-09 18:30:20.740 ,2,0,0.,4.8,2.,4.8,0.,4.8,0.,4.8
1979-03-09 18:30:25.540 ,2,0,0.,4.8,2.,4.8,1.,4.8,0.,4.8
1979-03-09 18:30:30.340 ,2,0,0.,4.8,0.,4.8,0.,4.8,0.,4.8
1979-03-09 18:30:35.140 ,2,0,0.,4.8,2.,4.8,0.,4.8,0.,4.8
1979-03-09 18:30:39.940 ,2,0,0.,4.8,1.,4.8,0.,4.8,0.,4.8
1979-03-09 18:30:44.740 ,1,0,0.,4.8,2.,4.8,1.,4.8,0.,4.8
1979-03-09 18:30:49.540 ,1,0,0.,4.8,1.,4.8,0.,4.8,0.,4.8
1979-03-09 18:30:54.340 ,1,0,0.,4.8,1.,4.8,1.,4.8,1.,4.8
1979-03-09 18:30:59.140 ,1,0,0.,4.8,0.,4.8,1.,4.8,0.,4.8
1979-03-09 18:31:03.940 ,1,0,0.,4.8,1.,4.8,0.,4.8,1.,4.8
1979-03-09 18:31:08.740 ,0,0,0.,4.8,2.,4.8,0.,4.8,0.,4.8
1979-03-09 18:31:13.540 ,0,0,0.,4.8,1.,4.8,0.,4.8,0.,4.8
1979-03-09 18:31:18.340 ,0,0,0.,4.8,0.,4.8,0.,4.8,0.,4.8
1979-03-09 18:31:23.140 ,0,0,0.,4.8,1.,4.8,0.,4.8,0.,4.8
1979-03-09 18:31:27.940 ,0,0,0.,4.8,0.,4.8,0.,4.8,0.,4.8
1979-03-09 18:31:32.740 ,0,0,0.,4.8,0.,4.8,0.,4.8,0.,4.8
1979-03-09 18:31:37.540 ,0,0,0.,4.8,4.,4.8,0.,4.8,1.,4.8
1979-03-09 18:31:42.340 ,0,0,0.,4.8,0.,4.8,0.,4.8,0.,4.8
1979-03-09 18:31:47.140 ,0,0,0.,4.8,2.,4.8,0.,4.8,0.,4.8
1979-03-09 18:31:51.940 ,0,0,0.,4.8,1.,4.8,0.,4.8,0.,4.8
1979-03-09 18:31:56.740 ,1,0,0.,4.8,0.,4.8,0.,4.8,0.,4.8
1979-03-09 18:32:01.540 ,1,0,0.,4.8,0.,4.8,0.,4.8,1.,4.8
1979-03-09 18:32:06.340 ,1,0,0.,4.8,0.,4.8,0.,4.8,1.,4.8
1979-03-09 18:32:11.140 ,1,0,0.,4.8,0.,4.8,2.,4.8,0.,4.8
1979-03-09 18:32:15.940 ,1,0,0.,4.8,0.,4.8,0.,4.8,0.,4.8
1979-03-09 18:32:20.740 ,2,0,0.,4.8,2.,4.8,0.,4.8,0.,4.8
1979-03-09 18:32:25.540 ,2,0,0.,4.8,2.,4.8,1.,4.8,0.,4.8
1979-03-09 18:32:30.340 ,2,0,0.,4.8,2.,4.8,1.,4.8,0.,4.8
1979-03-09 18:32:35.140 ,2,0,0.,4.8,0.,4.8,1.,4.8,0.,4.8
1979-03-09 18:32:39.940 ,2,0,0.,4.8,0.,4.8,0.,4.8,0.,4.8
1979-03-09 18:32:44.740 ,3,0,0.,4.8,0.,4.8,0.,4.8,0.,4.8
1979-03-09 18:32:49.540 ,3,0,0.,4.8,2.,4.8,0.,4.8,0.,4.8
1979-03-09 18:32:54.340 ,3,0,0.,4.8,1.,4.8,0.,4.8,0.,4.8
1979-03-09 18:32:59.140 ,3,0,0.,4.8,2.,4.8,1.,4.8,1.,4.8
1979-03-09 18:33:03.940 ,3,0,0.,4.8,0.,4.8,0.,4.8,0.,4.8
1979-03-09 18:33:08.740 ,4,0,0.,4.8,2.,4.8,0.,4.8,0.,4.8